TimeEST,TemperatureF,Dew PointF,Humidity,Sea Level PressureIn,VisibilityMPH,Wind Direction,Wind SpeedMPH,Gust SpeedMPH,PrecipitationIn,Events,Conditions,WindDirDegrees,DateUTC
12:16 AM,12.6,8.6,84,29.12,-9999.0,North,8.1,18.4,N/A,,Unknown,350,2013-01-31 05:16:00
12:35 AM,12.6,8.6,84,29.13,-9999.0,NNW,8.1,-,N/A,,Unknown,340,2013-01-31 05:35:00
12:55 AM,12.0,8.4,85,29.14,-9999.0,NNW,5.8,16.1,N/A,,Unknown,330,2013-01-31 05:55:00
1:16 AM,11.3,8.4,88,29.16,-9999.0,NNW,6.9,-,N/A,,Overcast,340,2013-01-31 06:16:00
1:35 AM,10.6,7.5,87,29.17,-9999.0,NNW,9.2,17.3,N/A,,Overcast,340,2013-01-31 06:35:00
1:56 AM,10.4,7.5,88,29.17,-9999.0,NNW,8.1,-,N/A,,Overcast,330,2013-01-31 06:56:00
2:15 AM,9.9,6.6,87,29.18,-9999.0,NNW,8.1,-,N/A,,Unknown,340,2013-01-31 07:15:00
2:36 AM,9.1,5.7,86,29.19,-9999.0,NNW,11.5,17.3,N/A,,Overcast,340,2013-01-31 07:36:00
2:56 AM,8.2,4.5,85,29.20,-9999.0,NNW,10.4,17.3,N/A,,Overcast,340,2013-01-31 07:56:00
3:15 AM,7.0,2.3,81,29.21,-9999.0,NNW,8.1,18.4,N/A,,Overcast,340,2013-01-31 08:15:00
3:36 AM,6.6,2.8,84,29.22,-9999.0,NNW,9.2,16.1,N/A,,Unknown,340,2013-01-31 08:36:00
3:55 AM,6.1,1.6,82,29.23,-9999.0,NW,10.4,16.1,N/A,,Overcast,320,2013-01-31 08:55:00
4:16 AM,5.5,1.0,82,29.24,-9999.0,NNW,11.5,19.6,N/A,,Unknown,340,2013-01-31 09:16:00
4:36 AM,4.6,-0.4,80,29.25,-9999.0,NW,6.9,19.6,N/A,,Overcast,320,2013-01-31 09:36:00
4:55 AM,4.1,-1.3,78,29.27,-9999.0,NNW,6.9,19.6,N/A,,Overcast,330,2013-01-31 09:55:00
5:16 AM,4.1,-1.5,78,29.29,-9999.0,NNW,8.1,18.4,N/A,,Overcast,330,2013-01-31 10:16:00
5:36 AM,3.6,-2.4,76,29.30,-9999.0,NW,9.2,17.3,N/A,,Overcast,320,2013-01-31 10:36:00
5:55 AM,3.6,-1.8,78,29.31,-9999.0,NW,12.7,16.1,N/A,,Overcast,310,2013-01-31 10:55:00
6:16 AM,3.2,-2.4,78,29.32,-9999.0,NW,9.2,17.3,N/A,,Overcast,310,2013-01-31 11:16:00
6:35 AM,3.2,-3.1,75,29.33,-9999.0,NW,9.2,20.7,N/A,,Overcast,320,2013-01-31 11:35:00
6:56 AM,3.2,-3.5,74,29.35,-9999.0,NNW,8.1,19.6,N/A,,Overcast,330,2013-01-31 11:56:00
7:16 AM,3.6,-2.4,76,29.37,-9999.0,NW,6.9,16.1,N/A,,Overcast,320,2013-01-31 12:16:00
7:35 AM,3.6,-3.1,74,29.38,-9999.0,NNW,5.8,17.3,N/A,,Overcast,330,2013-01-31 12:35:00
7:56 AM,3.2,-3.3,74,29.39,10.0,NNW,10.4,-,N/A,,Overcast,340,2013-01-31 12:56:00
8:16 AM,3.2,-3.1,75,29.41,10.0,NW,5.8,-,N/A,,Overcast,320,2013-01-31 13:16:00
8:35 AM,3.4,-3.5,73,29.42,10.0,NW,3.5,-,N/A,,Overcast,320,2013-01-31 13:35:00
8:56 AM,3.6,-3.1,74,29.43,10.0,NW,9.2,16.1,N/A,,Overcast,320,2013-01-31 13:56:00
9:15 AM,3.2,-3.1,75,29.45,7.0,NW,10.4,-,N/A,,Overcast,310,2013-01-31 14:15:00
9:36 AM,3.2,-3.1,75,29.45,5.0,NW,8.1,17.3,N/A,Snow,Light Snow,320,2013-01-31 14:36:00
9:56 AM,3.7,-2.4,76,29.46,3.0,NNW,6.9,-,N/A,Snow,Light Snow,330,2013-01-31 14:56:00
10:36 AM,4.3,-2.2,75,29.48,5.0,NW,8.1,-,N/A,,Haze,320,2013-01-31 15:36:00
10:56 AM,5.4,-0.8,76,29.48,4.0,NNW,8.1,-,N/A,Snow,Light Snow,330,2013-01-31 15:56:00
11:15 AM,5.5,-1.1,74,29.50,7.0,NW,8.1,-,N/A,,Overcast,320,2013-01-31 16:15:00
11:36 AM,5.4,-1.1,75,29.50,10.0,NW,5.8,-,N/A,,Overcast,310,2013-01-31 16:36:00
12:00 PM,6.6,1.0,78,29.51,5.0,NW,5.8,-,N/A,,Haze,320,2013-01-31 17:00:00
12:15 PM,7.2,1.6,78,29.51,5.0,West,8.1,-,N/A,,Haze,280,2013-01-31 17:15:00
12:36 PM,7.7,2.3,79,29.51,7.0,WNW,8.1,-,N/A,,Overcast,290,2013-01-31 17:36:00
12:55 PM,8.1,3.0,80,29.52,4.0,WNW,6.9,-,N/A,,Haze,300,2013-01-31 17:55:00
1:16 PM,9.3,4.1,79,29.52,7.0,NW,8.1,-,N/A,,Overcast,310,2013-01-31 18:16:00
1:35 PM,9.9,4.1,78,29.53,5.0,NW,10.4,17.3,N/A,,Haze,310,2013-01-31 18:35:00
1:56 PM,11.5,5.9,78,29.53,4.0,West,10.4,17.3,N/A,,Haze,280,2013-01-31 18:56:00
2:16 PM,11.7,6.1,78,29.54,7.0,WNW,9.2,-,N/A,,Overcast,290,2013-01-31 19:16:00
2:35 PM,12.2,6.4,78,29.55,7.0,NW,8.1,-,N/A,,Overcast,320,2013-01-31 19:35:00
2:55 PM,12.2,7.3,81,29.55,4.0,NNW,10.4,16.1,N/A,,Haze,330,2013-01-31 19:55:00
3:16 PM,12.6,7.2,79,29.56,4.0,NW,8.1,16.1,N/A,,Haze,310,2013-01-31 20:16:00
3:35 PM,12.2,7.2,80,29.57,5.0,NW,10.4,17.3,N/A,,Haze,320,2013-01-31 20:35:00
3:56 PM,12.0,6.8,80,29.58,10.0,NW,4.6,-,N/A,,Overcast,320,2013-01-31 20:56:00
4:15 PM,11.7,6.6,80,29.59,7.0,NNW,5.8,-,N/A,,Overcast,330,2013-01-31 21:15:00
4:36 PM,11.1,6.4,81,29.61,7.0,NNW,6.9,-,N/A,,Overcast,330,2013-01-31 21:36:00
4:55 PM,10.9,5.7,79,29.61,10.0,NW,9.2,18.4,N/A,,Overcast,310,2013-01-31 21:55:00
5:16 PM,10.4,5.9,82,29.63,10.0,NW,6.9,-,N/A,,Overcast,320,2013-01-31 22:16:00
5:36 PM,10.0,5.2,81,29.64,10.0,NNW,8.1,-,N/A,,Overcast,330,2013-01-31 22:36:00
5:55 PM,9.3,4.1,79,29.65,10.0,NW,4.6,-,N/A,,Overcast,320,2013-01-31 22:55:00
6:16 PM,9.1,4.5,81,29.66,10.0,NW,4.6,-,N/A,,Overcast,320,2013-01-31 23:16:00
6:36 PM,9.0,4.8,83,29.67,10.0,NNW,5.8,-,N/A,,Overcast,330,2013-01-31 23:36:00
6:55 PM,8.6,3.9,81,29.68,10.0,NW,6.9,-,N/A,,Overcast,320,2013-01-31 23:55:00
7:16 PM,8.4,3.6,81,29.69,10.0,NNW,5.8,-,N/A,,Overcast,340,2013-02-01 00:16:00
7:36 PM,7.7,2.7,80,29.69,10.0,NNW,8.1,-,N/A,,Overcast,330,2013-02-01 00:36:00
8:16 PM,7.5,2.5,80,29.71,10.0,NNW,4.6,-,N/A,,Overcast,330,2013-02-01 01:16:00
8:36 PM,7.3,2.3,80,29.72,10.0,NNW,4.6,-,N/A,,Overcast,340,2013-02-01 01:36:00
8:55 PM,7.2,2.1,80,29.73,10.0,NNW,5.8,-,N/A,,Overcast,340,2013-02-01 01:55:00
9:16 PM,7.0,2.3,81,29.73,7.0,NNW,4.6,-,N/A,,Overcast,330,2013-02-01 02:16:00
9:35 PM,6.8,2.5,82,29.74,7.0,NW,4.6,-,N/A,,Overcast,320,2013-02-01 02:35:00
10:16 PM,6.3,2.3,84,29.75,7.0,NNW,4.6,-,N/A,,Overcast,330,2013-02-01 03:16:00
10:35 PM,5.9,1.9,84,29.75,10.0,NNW,5.8,-,N/A,,Mostly Cloudy,330,2013-02-01 03:35:00
11:16 PM,5.4,0.5,80,29.77,10.0,North,6.9,-,N/A,,Overcast,350,2013-02-01 04:16:00
11:35 PM,5.5,0.7,80,29.77,10.0,North,4.6,-,N/A,,Overcast,350,2013-02-01 04:35:00